Location: Dannhausen
(51.8650°N, 10.1026°E)
Time: 00:26:39
(UTC+00:00)

Cosmos 2233 Rocket - Pass Details

Date: 19 August 2020
Orbit: 952 x 992 km, 82.9° (Epoch: 26 September)

Event Time Altitude Azimuth Distance (km) Brightness Sun altitude
Exits shadow 20:41:03 26° 133° (SE) 1,855 4.9 -16.8°
Maximum altitude 20:43:50 38° 87° (E) 1,474 4.6 -17.1°
Drops below altitude 10° 20:49:34 10° 22° (NNE) 2,760 6.7 -17.7°
Sets 20:52:15 0° 15° (NNE) 3,709 7.6 -18.0°
